sat.trackr.live / text

‹ back to catalog

GSAT0223 (GALILEO 27)

NORAD 49809 · 2021-116A

PAYLOAD ACTIVE UNKNOWN

§ Identity

Operator
Country
ESA
Launch date
2021-12-05
Launch site
FRGUI
Launch vehicle
Mass (kg)
RCS (m²)

Purposes: earth_obs, nav

External: N2YO · Heavens-Above · Gunter

§ Orbital elements

Epoch: 2026-09-18T06:14:54.188160Z

Period
844.69 min
Inclination
57.1228°
Eccentricity
0.0003928
Mean motion
1.70476661 rev/d
Perigee alt
23,210.2 km
Apogee alt
23,233.5 km
Semi-major
29,600.0 km
B*
0.0000e+0
RAAN
339.1611°
Arg perigee
222.0654°
Mean anomaly
138.9707°
Rev number
2,977

§ Raw data

GSAT0223 (GALILEO 27)1 49809U 21116A   26261.26034940 -.00000095  00000+0  00000+0 0  99992 49809  57.1228 339.1611 0003928 222.0654 138.9707  1.70476661 29772

JSON: /api/v1/satellites/49809 · /tle

For live sub-satellite position, see the globe view (requires WebGL).

§ Visibility from observer

Set your observer location to see the next 7 days of passes ≥ 10°. The values pass through the URL so the page stays shareable.

No JS? Fill the form by hand. The geolocation button needs JavaScript.